Madison, SD

9:32 AM CDT on March 26, 2017 (GMT -0500)
Madison Municipal

Weather History for KMDS - May, 2014

Change the Weather History Date:

Thursday, May 15, 2014

  Actual Average Record
Temperature  
Mean Temperature 37 °F -  
Max Temperature 46 °F 71 °F 75 °F (2013)
Min Temperature 28 °F 45 °F 28 °F (2014)
Degree Days  
Heating Degree Days 28    
Moisture  
Dew Point 28 °F    
Average Humidity 73    
Maximum Humidity 100    
Minimum Humidity 43    
Precipitation  
Precipitation 0.00 in - - ()
Sea Level Pressure  
Sea Level Pressure 30.21 in    
Wind  
Wind Speed 10 mph (North)    
Max Wind Speed 18 mph    
Max Gust Speed 25 mph    
Visibility 10 miles    
Events      
Averages and records for this station are not official NWS values.
T = Trace of Precipitation, MM = Missing Value Source: NWS Daily Summary

Daily Weather History Graph

Daily Weather History Graph

Search for Another Location

Airport or City:

Trip Planner

Search our weather history database for the weather conditions in past years. The results will help you decide how hot, cold, wet, or windy it might be!

Date:

Astronomy

May. 15, 2014 Rise Set
Actual Time 6:02 AM CDT 8:47 PM CDT
Civil Twilight 5:28 AM CDT 9:21 PM CDT
Nautical Twilight 4:46 AM CDT 10:03 PM CDT
Astronomical Twilight 3:57 AM CDT 10:52 PM CDT
Moon 9:57 PM CDT (5/15) 6:50 AM CDT (5/15)
Length of Visible Light 15h 52m
Length of Day
14h 45m
Full, 99% of the Moon is Illuminated
May 15
Full
May 21
Last Quarter
May 28
New
Jun 5
First Quarter
Jun 12
Full

Hourly Weather History & Observations

Time (CDT) Temp. Windchill Dew Point Humidity Pressure Visibility Wind Dir Wind Speed Gust Speed Precip Events Conditions
12:15 AM 32.0 °F 24.2 °F 30.2 °F 93% 30.26 in 10.0 mi NNE 9.2 mph - N/A   Clear
12:35 AM 32.0 °F 24.2 °F 32.0 °F 100% 30.26 in 10.0 mi NNE 9.2 mph - N/A   Clear
12:55 AM 32.0 °F 25.6 °F 32.0 °F 100% 30.25 in 10.0 mi NNE 6.9 mph - N/A   Clear
1:15 AM 30.2 °F 22.6 °F 30.2 °F 100% 30.25 in 10.0 mi North 8.1 mph - N/A   Clear
1:35 AM 30.2 °F 22.6 °F 30.2 °F 100% 30.25 in 10.0 mi North 8.1 mph - N/A   Clear
1:55 AM 30.2 °F 22.6 °F 30.2 °F 100% 30.25 in 10.0 mi North 8.1 mph - N/A   Clear
2:15 AM 30.2 °F 22.6 °F 30.2 °F 100% 30.24 in 10.0 mi North 8.1 mph - N/A   Clear
2:35 AM 30.2 °F 21.9 °F 30.2 °F 100% 30.24 in 10.0 mi North 9.2 mph - N/A   Clear
2:55 AM 28.4 °F 20.4 °F 28.4 °F 100% 30.24 in 10.0 mi North 8.1 mph - N/A   Clear
3:15 AM 28.4 °F 19.7 °F 28.4 °F 100% 30.24 in 10.0 mi North 9.2 mph - N/A   Clear
3:35 AM 28.4 °F 20.4 °F 28.4 °F 100% 30.24 in 10.0 mi North 8.1 mph - N/A   Clear
3:55 AM 28.4 °F 20.4 °F 28.4 °F 100% 30.23 in 10.0 mi NNW 8.1 mph - N/A   Clear
4:15 AM 28.4 °F 21.2 °F 28.4 °F 100% 30.23 in 10.0 mi NNW 6.9 mph - N/A   Clear
4:35 AM 28.4 °F 20.4 °F 28.4 °F 100% 30.23 in 10.0 mi NNW 8.1 mph - N/A   Clear
4:55 AM 28.4 °F 20.4 °F 28.4 °F 100% 30.23 in 10.0 mi North 8.1 mph - N/A   Clear
5:15 AM 28.4 °F 19.7 °F 28.4 °F 100% 30.23 in 10.0 mi NNW 9.2 mph - N/A   Clear
5:35 AM 28.4 °F 20.4 °F 28.4 °F 100% 30.23 in 10.0 mi NNW 8.1 mph - N/A   Clear
5:55 AM 28.4 °F 19.1 °F 28.4 °F 100% 30.22 in 10.0 mi NNW 10.4 mph - N/A   Clear
6:15 AM 28.4 °F 20.4 °F 28.4 °F 100% 30.22 in 10.0 mi NNW 8.1 mph - N/A   Scattered Clouds
6:35 AM 28.4 °F 20.4 °F 28.4 °F 100% 30.23 in 10.0 mi NNW 8.1 mph - N/A   Overcast
6:55 AM 32.0 °F 24.8 °F 32.0 °F 100% 30.23 in 10.0 mi NNW 8.1 mph - N/A   Overcast
7:15 AM 32.0 °F 23.0 °F 32.0 °F 100% 30.23 in 10.0 mi NNW 11.5 mph - N/A   Overcast
7:35 AM 32.0 °F 23.0 °F 32.0 °F 100% 30.23 in 10.0 mi NNW 11.5 mph - N/A   Overcast
7:55 AM 33.8 °F 25.3 °F 33.8 °F 100% 30.24 in 10.0 mi NNW 11.5 mph - N/A   Overcast
8:15 AM 35.6 °F 26.2 °F 32.0 °F 87% 30.24 in 10.0 mi North 15.0 mph 18.4 mph N/A   Overcast
8:35 AM 35.6 °F 26.6 °F 32.0 °F 87% 30.23 in 10.0 mi NNW 13.8 mph - N/A   Overcast
8:55 AM 37.4 °F 28.5 °F 28.4 °F 70% 30.23 in 10.0 mi NNW 15.0 mph - N/A   Overcast
9:15 AM 37.4 °F 28.5 °F 28.4 °F 70% 30.24 in 10.0 mi North 15.0 mph - N/A   Overcast
9:35 AM 37.4 °F 28.2 °F 28.4 °F 70% 30.24 in 10.0 mi North 16.1 mph - N/A   Overcast
9:55 AM 37.4 °F 27.8 °F 28.4 °F 70% 30.23 in 10.0 mi North 17.3 mph 20.7 mph N/A   Overcast
10:15 AM 39.2 °F 29.8 °F 26.6 °F 61% 30.23 in 10.0 mi NNE 18.4 mph 21.9 mph N/A   Overcast
10:35 AM 37.4 °F 28.9 °F 26.6 °F 65% 30.23 in 10.0 mi North 13.8 mph - N/A   Overcast
10:55 AM 39.2 °F 31.2 °F 26.6 °F 61% 30.23 in 10.0 mi North 13.8 mph - N/A   Overcast
11:15 AM 39.2 °F 30.8 °F 26.6 °F 61% 30.23 in 10.0 mi NNW 15.0 mph 20.7 mph N/A   Overcast
11:35 AM 39.2 °F 30.5 °F 24.8 °F 56% 30.23 in 10.0 mi North 16.1 mph 23.0 mph N/A   Overcast
11:55 AM 41.0 °F 33.1 °F 24.8 °F 53% 30.23 in 10.0 mi North 15.0 mph 20.7 mph N/A   Overcast
12:15 PM 41.0 °F 32.5 °F 24.8 °F 53% 30.23 in 10.0 mi North 17.3 mph 21.9 mph N/A   Overcast
12:35 PM 41.0 °F 33.5 °F 24.8 °F 53% 30.23 in 10.0 mi North 13.8 mph 23.0 mph N/A   Overcast
12:55 PM 41.0 °F 33.1 °F 24.8 °F 53% 30.22 in 10.0 mi NNE 15.0 mph - N/A   Overcast
1:15 PM 41.0 °F 33.5 °F 24.8 °F 53% 30.22 in 10.0 mi North 13.8 mph 23.0 mph N/A   Overcast
2:15 PM 42.8 °F 35.1 °F 24.8 °F 49% 30.21 in 10.0 mi North 16.1 mph 19.6 mph N/A   Overcast
2:35 PM 42.8 °F 35.8 °F 24.8 °F 49% 30.21 in 10.0 mi North 13.8 mph 23.0 mph N/A   Overcast
2:55 PM 44.6 °F 38.1 °F 24.8 °F 46% 30.20 in 10.0 mi North 13.8 mph 17.3 mph N/A   Overcast
3:15 PM 44.6 °F 38.4 °F 24.8 °F 46% 30.20 in 10.0 mi North 12.7 mph 25.3 mph N/A   Overcast
3:35 PM 44.6 °F 38.1 °F 24.8 °F 46% 30.20 in 10.0 mi North 13.8 mph 23.0 mph N/A   Overcast
3:55 PM 44.6 °F 38.1 °F 24.8 °F 46% 30.19 in 10.0 mi NNE 13.8 mph 25.3 mph N/A   Overcast
4:15 PM 44.6 °F 37.8 °F 24.8 °F 46% 30.19 in 10.0 mi North 15.0 mph 19.6 mph N/A   Overcast
4:35 PM 44.6 °F 37.8 °F 24.8 °F 46% 30.19 in 10.0 mi North 15.0 mph 20.7 mph N/A   Overcast
4:55 PM 44.6 °F 36.9 °F 24.8 °F 46% 30.18 in 10.0 mi North 18.4 mph 23.0 mph N/A   Overcast
5:15 PM 44.6 °F 37.8 °F 24.8 °F 46% 30.18 in 10.0 mi North 15.0 mph 19.6 mph N/A   Overcast
5:35 PM 44.6 °F 38.4 °F 24.8 °F 46% 30.18 in 10.0 mi North 12.7 mph - N/A   Overcast
5:55 PM 44.6 °F 39.7 °F 24.8 °F 46% 30.17 in 10.0 mi North 9.2 mph - N/A   Mostly Cloudy
6:15 PM 44.6 °F 39.2 °F 24.8 °F 46% 30.16 in 10.0 mi North 10.4 mph 18.4 mph N/A   Partly Cloudy
6:35 PM 44.6 °F 39.7 °F 24.8 °F 46% 30.16 in 10.0 mi North 9.2 mph 18.4 mph N/A   Partly Cloudy
6:55 PM 46.4 °F 41.5 °F 24.8 °F 43% 30.15 in 10.0 mi North 10.4 mph - N/A   Partly Cloudy
7:15 PM 44.6 °F 39.2 °F 24.8 °F 46% 30.15 in 10.0 mi North 10.4 mph 16.1 mph N/A   Partly Cloudy
7:35 PM 44.6 °F 39.7 °F 24.8 °F 46% 30.15 in 10.0 mi NE 9.2 mph - N/A   Partly Cloudy
7:55 PM 44.6 °F 40.2 °F 24.8 °F 46% 30.15 in 10.0 mi NNE 8.1 mph - N/A   Clear
8:15 PM 44.6 °F 39.7 °F 26.6 °F 49% 30.15 in 10.0 mi NE 9.2 mph - N/A   Clear
8:35 PM 41.0 °F 35.8 °F 26.6 °F 57% 30.15 in 10.0 mi NE 8.1 mph - N/A   Mostly Cloudy
8:55 PM 41.0 °F 36.4 °F 28.4 °F 61% 30.16 in 10.0 mi ENE 6.9 mph - N/A   Partly Cloudy
9:15 PM 39.2 °F 33.6 °F 28.4 °F 65% 30.16 in 10.0 mi ENE 8.1 mph - N/A   Clear
9:35 PM 39.2 °F 33.6 °F 28.4 °F 65% 30.17 in 10.0 mi ENE 8.1 mph - N/A   Clear
9:55 PM 37.4 °F 32.8 °F 28.4 °F 70% 30.17 in 10.0 mi ENE 5.8 mph - N/A   Clear
10:15 PM 37.4 °F 32.8 °F 28.4 °F 70% 30.17 in 10.0 mi ENE 5.8 mph - N/A   Clear
10:35 PM 35.6 °F 31.7 °F 28.4 °F 75% 30.17 in 10.0 mi ENE 4.6 mph - N/A   Clear
10:55 PM 35.6 °F 31.7 °F 28.4 °F 75% 30.17 in 10.0 mi ENE 4.6 mph - N/A   Clear
11:15 PM 33.8 °F 30.8 °F 28.4 °F 81% 30.17 in 10.0 mi NE 3.5 mph - N/A   Clear
11:35 PM 32.0 °F - 30.2 °F 93% 30.16 in 10.0 mi Calm Calm - N/A   Clear
11:55 PM 32.0 °F - 30.2 °F 93% 30.16 in 10.0 mi Calm Calm - N/A   Clear